User: anonymous   Login
Location: Unspecified
(0.0000°N, 0.0000°E)
Time: 13:28:39
(UTC+00:00)
Language:

Vanguard 1 Rocket - Orbit

View from above orbital plane
View from above orbital plane
View from above satellite
View from above satellite

Ground track
Ground track

The orbit data is extracted from the following two-line orbital elements,

1    16U 58002A   19051.51769859  .00000116  00000-0  17079-3 0  9993
2    16  34.2648 109.1568 2027233   1.3955 359.1322 10.48732991408122
Epoch (UTC): 20 February 2019 12:25:29
Eccentricity: 0.2027233
inclination: 34.2648°
perigee height: 651 km
apogee height: 4225 km
right ascension of ascending node: 109.1568°
argument of perigee: 1.3955°
revolutions per day: 10.48732991
mean anomaly at epoch: 359.1322°
orbit number at epoch: 40812

The dashed part of the orbit path shows where the satellite is in the earth's shadow,  

DLR